Regional Weather Roundup
Issued by NWS

Home | Current Version | Previous Version | Text Only | Print | Product List | Glossary Off
Versions: 1 2 3 4 5 6 7 8 9 10 11 12 13 14 15 16 17 18 19 20 21 22 23 24 25 26 27 28 29 30 31 32 33 34 35 36 37 38 39 40 41 42 43 44 45 46 47 48 49 50

000
ASUS43 KTOP 301059
RWRKS

WEATHER ROUNDUP FOR KANSAS
NATIONAL WEATHER SERVICE GOODLAND KS
600 AM CDT FRI SEP 30 2016

NOTE:  "FAIR" INDICATES FEW OR NO CLOUDS BELOW 12,000 FEET WITH NO
SIGNIFICANT WEATHER AND/OR OBSTRUCTIONS TO VISIBILITY.

KSZ001>006-013>018-027>032-041>047-301200-
NORTHWEST KANSAS

CITY           SKY/WX    TMP DP  RH WIND       PRES   REMARKS
GOODLAND       CLEAR     46  40  79 S14       30.22F
HAYS           CLOUDY    41  34  75 NW5       30.29S
HILL CITY      CLEAR     41  39  93 CALM      30.29F
$$

KSZ061>065-074>080-084>089-301200-
SOUTHWEST KANSAS

CITY           SKY/WX    TMP DP  RH WIND       PRES   REMARKS
DODGE CITY     CLEAR     48  45  89 S8        30.28F
ELKHART          N/A     46  37  71 SE9         N/A
GARDEN CITY    CLEAR     48  43  82 SE10      30.25F
GREAT BEND     CLEAR     45  34  65 CALM      30.28F
LIBERAL        CLEAR     48  39  71 SE8       30.26F
$$

KSZ066>073-081>083-090>101-301200-
SOUTHEAST KANSAS

CITY           SKY/WX    TMP DP  RH WIND       PRES   REMARKS
CHANUTE        CLEAR     50  47  89 N6        30.23F
COFFEYVILLE    CLEAR     49  48  97 N3        30.23F
HUTCHINSON     CLEAR     46  45  96 CALM      30.28S
MEDICINE LODGE   N/A     46  44  93 CALM      30.27S
NEWTON           N/A     49  47  93 N6        30.28R
PARSONS        CLEAR     47  46  97 N3        30.24S
WICHITA INTL   CLEAR     49  47  93 N5        30.27R
WICHITA JABRA  CLEAR     50  47  89 N6        30.27R
WICHITA MCCONL CLEAR     51  47  88 N5        30.27R
WINFIELD       CLEAR     47  46  97 NW5       30.27S FOG
$$

KSZ007>012-019>026-033>040-048>060-102>105-301200-
NORTHEAST KANSAS

CITY           SKY/WX    TMP DP  RH WIND       PRES   REMARKS
CONCORDIA      CLEAR     44  44 100 CALM      30.28S
EMPORIA        CLEAR     49  47  93 NW5       30.26S
LAWRENCE       CLEAR     46  46 100 W5        30.25S
MANHATTAN      CLEAR     45  43  93 CALM      30.28S
OLATHE IND     CLEAR     48  47  96 NW3       30.25S
OLATHE EXE     CLEAR     52  48  86 N5        30.24S
SALINA         CLEAR     48  45  89 CALM      30.29S
TOPEKA BILLARD CLEAR     49  46  90 W3        30.26S
TOPEKA FORBES  CLEAR     49  46  90 NW7       30.26R
$$




USA.gov is the U.S. government's official web portal to all federal, state and local government web resources and services.